Regional Weather Roundup
Issued by NWS Little Rock, AR

Home | Current Version | Previous Version | Graphics & Text | Print | Product List | Glossary On
Versions: 1 2 3 4 5 6 7 8 9 10 11 12 13 14 15 16 17 18 19 20 21 22 23 24 25 26 27 28 29 30 31 32 33 34 35 36 37 38 39 40 41 42 43 44 45 46 47 48 49 50
000
ASUS44 KLZK 041305
RWRLZK

WEATHER ROUNDUP FOR ARKANSAS
NATIONAL WEATHER SERVICE LITTLE ROCK AR
800 AM CDT SAT JUL 04 2015

NOTE: "FAIR" INDICATES FEW OR NO CLOUDS BELOW 12,000 FEET WITH NO
SIGNIFICANT WEATHER AND/OR OBSTRUCTIONS TO VISIBILITY.

ARZ001-003-010-029-041400-
NORTHWEST ARKANSAS

CITY           SKY/WX    TMP DP  RH WIND       PRES   REMARKS
FAYETTEVILLE   CLOUDY    66  66 100 CALM      30.01R FOG
FORT SMITH     CLOUDY    71  69  93 E3        29.97S
HARRISON       FOG       69  69 100 E5        30.02R VSB 1/4
BENTONVILLE    PTSUNNY   72  68  88 E8        30.01R
ROGERS         CLOUDY    71  69  93 E6        30.02R
SILOAM SPGS    CLOUDY    68  64  88 E7          N/A
HIGHFILL       CLOUDY    71  71 100 E6        30.00S FOG
SPRINGDALE     CLOUDY    68  68 100 E6        30.03R FOG
$$

ARZ004-005-016-041400-
NORTH CENTRAL ARKANSAS

CITY           SKY/WX    TMP DP  RH WIND       PRES   REMARKS
BATESVILLE     CLOUDY    70  66  88 CALM      29.99R
FLIPPIN        MOSUNNY   70  66  88 CALM      29.99R
MTN HOME       CLOUDY    68  67  96 CALM      30.00R FOG
$$

ARZ040-041-041400-
WEST CENTRAL ARKANSAS

CITY           SKY/WX    TMP DP  RH WIND       PRES   REMARKS
MENA           CLOUDY    72  70  94 CALM      30.03R
MOUNT IDA      CLOUDY    71  69  93 CALM      29.98R
$$

ARZ009-017-025-026-028-041400-
NORTHEAST ARKANSAS

CITY           SKY/WX    TMP DP  RH WIND       PRES   REMARKS
JONESBORO      CLOUDY    71  71 100 CALM      29.97S FOG
NEWPORT        CLOUDY    71  71 100 CALM      29.98S
WALNUT RIDGE   PTSUNNY   72  70  94 CALM      29.98R
BLYTHEVILLE    CLOUDY    74  73  97 SW3       29.98R
$$

ARZ022-023-033-042-044-041400-
CENTRAL ARKANSAS

CITY           SKY/WX    TMP DP  RH WIND       PRES   REMARKS
LITTLE ROCK    HVY RAIN  72  68  88 SW12      29.97F VSB 3/4
N LITTLE ROCK    N/A     70  70 100 SW10      29.97S
JACKSONVILLE   CLOUDY    71  70  98 W7        29.97S
SEARCY         CLOUDY    70  69  97 CALM      29.99R
HOT SPRINGS    CLOUDY    70  68  93 SE3       30.00R
RUSSELLVILLE   CLOUDY    71  70  96 CALM      29.98R
CLINTON        CLOUDY    68  68 100 CALM      30.00R
$$

ARZ036-041400-
EAST ARKANSAS

CITY           SKY/WX    TMP DP  RH WIND       PRES   REMARKS
WEST MEMPHIS   CLOUDY    73  73 100 S3        29.97R
$$

ARZ050-053-066-070-073-041400-
SOUTHWEST ARKANSAS

CITY           SKY/WX    TMP DP  RH WIND       PRES   REMARKS
ARKADELPHIA    LGT RAIN  71  71 100 SW7       30.02R FOG
CAMDEN         RAIN      68  66  94 CALM      30.01F
TEXARKANA      TSTM      70  69  97 SE8       30.02R FOG
EL DORADO      TSTM      68  67  96 N6        30.02F FOG
DE QUEEN       CLOUDY    71  71 100 CALM      29.96R
$$

ARZ056-057-069-041400-
SOUTHEAST ARKANSAS

CITY           SKY/WX    TMP DP  RH WIND       PRES   REMARKS
PINE BLUFF     RAIN      70  68  93 S5        29.99F
STUTTGART      CLOUDY    72  70  94 SW14      29.97S
MONTICELLO     RAIN      71  70  96 VRB3      30.00S FOG

$$





USA.gov is the U.S. government's official web portal to all federal, state and local government web resources and services.